Weather History for Lakenheath RAF, United Kingdom

Change the Weather History Date:

Monday, October 29, 2012

  Actual Average (EGSC) Record (EGSC)
Temperature  
Mean Temperature 47 °F -  
Max Temperature 53 °F 54 °F 60 °F (2005)
Min Temperature 41 °F 45 °F 24 °F (1997)
Degree Days  
Heating Degree Days 18    
Moisture  
Dew Point 43 °F    
Average Humidity 89    
Maximum Humidity 100    
Minimum Humidity 72    
Precipitation  
Precipitation 0.01 in - - ()
Sea Level Pressure  
Sea Level Pressure 29.72 in    
Wind  
Wind Speed 7 mph ()    
Max Wind Speed 15 mph    
Max Gust Speed -    
Visibility 4.7 miles    
Events Rain    
Averages and records for this station are not official NWS values.
T = Trace of Precipitation, MM = Missing Value Source: Averaged Metar Reports

Daily Weather History Graph

Daily Weather History Graph

Search for Another Location

Airport:

Trip Planner

Search our weather history database for the weather conditions in past years. The results will help you decide how hot, cold, wet, or windy it might be!

Date:

Astronomy

Oct. 29, 2012 Rise Set
Actual Time 6:48 AM GMT 4:33 PM GMT
Civil Twilight 6:13 AM GMT 5:08 PM GMT
Nautical Twilight 5:33 AM GMT 5:48 PM GMT
Astronomical Twilight 4:53 AM GMT 6:28 PM GMT
Moon 4:11 PM GMT (10/29) 6:27 AM GMT (10/29)
Length of Visible Light 10h 55m
Length of Day
9h 44m
Full, 100% of the Moon is Illuminated
Oct 29
Full
Oct 29
Full
Nov 7
Last Quarter
Nov 13
New
Nov 20
First Quarter

Hourly Weather History & Observations

Time (GMT) Temp. Windchill Dew Point Humidity Pressure Visibility Wind Dir Wind Speed Gust Speed Precip Events Conditions
1:17 AM 46.4 °F 41.1 °F 44.6 °F 93% 29.78 in 6.2 mi SSW 11.5 mph - N/A   Mostly Cloudy
1:41 AM 46.4 °F 41.5 °F 44.6 °F 93% 29.78 in 6.2 mi SSW 10.4 mph - N/A   Light Drizzle
1:58 AM 45.9 °F 41.2 °F 44.1 °F 93% 29.79 in 6.2 mi SSW 9.2 mph - 0.00 in Rain Light Rain
2:12 AM 46.4 °F 41.9 °F 42.8 °F 87% 29.78 in 6.2 mi SSW 9.2 mph - N/A   Mostly Cloudy
3:58 AM 46.0 °F 41.9 °F 43.3 °F 90% 29.77 in 6.2 mi SSW 8.1 mph - N/A   Overcast
4:58 AM 45.9 °F 41.2 °F 42.8 °F 89% 29.76 in 6.2 mi SSW 9.2 mph - N/A   Mostly Cloudy
5:58 AM 46.0 °F 41.9 °F 42.8 °F 88% 29.76 in 6.2 mi SSW 8.1 mph - N/A   Overcast
6:58 AM 45.5 °F 41.8 °F 42.3 °F 88% 29.77 in 6.2 mi SSW 6.9 mph - N/A   Overcast
8:58 AM 46.9 °F - 43.0 °F 86% 29.77 in 6.2 mi SW 9.2 mph - N/A   Scattered Clouds
9:58 AM 49.6 °F - 44.4 °F 82% 29.75 in 6.2 mi WSW 13.8 mph - N/A   Clear
11:56 AM 53.6 °F - 46.4 °F 77% 29.72 in 6.2 mi West 15.0 mph - N/A   Mostly Cloudy
11:58 AM 53.6 °F - 44.6 °F 72% 29.74 in 6.2 mi West 13.8 mph - N/A   Mostly Cloudy
12:00 PM 51.8 °F - 44.6 °F 76% 29.73 in 6.2 mi West 13.8 mph - N/A   Mostly Cloudy
12:07 PM 51.8 °F - 44.6 °F 76% 29.72 in 6.2 mi WSW 15.0 mph - N/A   Mostly Cloudy
12:11 PM 51.8 °F - 44.6 °F 76% 29.73 in 6.2 mi West 12.7 mph - N/A   Mostly Cloudy
12:12 PM 51.8 °F - 44.6 °F 76% 29.73 in 6.2 mi WSW 12.7 mph - N/A   Mostly Cloudy
12:50 PM 51.8 °F - 44.6 °F 76% 29.72 in 6.2 mi WSW 13.8 mph - N/A   Overcast
12:52 PM 51.8 °F - 44.6 °F 76% 29.72 in 6.2 mi West 12.7 mph - N/A   Overcast
12:53 PM 51.8 °F - 44.6 °F 76% 29.73 in 6.2 mi West 12.7 mph - N/A   Overcast
12:55 PM 51.8 °F - 44.6 °F 76% 29.73 in 6.2 mi West 12.7 mph - N/A   Overcast
12:58 PM 51.6 °F - 45.0 °F 78% 29.73 in 6.2 mi West 13.8 mph - N/A   Overcast
1:02 PM 51.8 °F - 44.6 °F 76% 29.73 in 6.2 mi West 11.5 mph - N/A   Overcast
1:15 PM 51.8 °F - 44.6 °F 76% 29.72 in 6.2 mi West 11.5 mph - N/A   Overcast
1:20 PM 51.8 °F - 44.6 °F 76% 29.72 in 6.2 mi West 9.2 mph - N/A   Overcast
1:25 PM 51.8 °F - 44.6 °F 76% 29.72 in 6.2 mi West 10.4 mph - N/A   Overcast
1:47 PM 51.8 °F - 46.4 °F 82% 29.72 in 6.2 mi West 10.4 mph - N/A   Overcast
1:57 PM 51.8 °F - 46.4 °F 82% 29.72 in 6.2 mi West 11.5 mph - N/A   Overcast
1:58 PM 51.8 °F - 46.4 °F 82% 29.73 in 6.2 mi West 10.4 mph - N/A   Overcast
2:58 PM 51.6 °F - 44.8 °F 77% 29.72 in 6.2 mi West 8.1 mph - N/A   Overcast
3:43 PM 50.0 °F - 46.4 °F 87% 29.71 in 6.2 mi NW 8.1 mph - N/A   Light Drizzle
3:58 PM 50.2 °F - 45.0 °F 82% 29.72 in 6.2 mi WNW 4.6 mph - 0.00 in   Light Drizzle
4:04 PM 50.0 °F - 44.6 °F 82% 29.71 in 6.2 mi WNW 5.8 mph - N/A   Mostly Cloudy
4:11 PM 50.0 °F - 44.6 °F 82% 29.71 in 6.2 mi West 6.9 mph - N/A   Drizzle
4:49 PM 48.2 °F - 46.4 °F 93% 29.70 in 6.2 mi SW 8.1 mph - N/A   Mostly Cloudy
4:58 PM 48.9 °F - 46.4 °F 91% 29.71 in 6.2 mi SW 8.1 mph - 0.00 in   Mostly Cloudy
5:32 PM 46.4 °F 42.4 °F 44.6 °F 93% 29.71 in 6.2 mi WSW 8.1 mph - N/A   Mostly Cloudy
5:40 PM 48.2 °F - 44.6 °F 87% 29.71 in 6.2 mi West 8.1 mph - N/A   Light Drizzle
5:56 PM 48.2 °F - 44.6 °F 87% 29.71 in 6.2 mi WNW 5.8 mph - N/A   Overcast
5:58 PM 48.2 °F - 44.6 °F 87% 29.72 in 6.2 mi WNW 5.8 mph - 0.00 in   Overcast
6:06 PM 48.2 °F - 44.6 °F 87% 29.71 in 6.2 mi NW 6.9 mph - N/A   Overcast
6:09 PM 48.2 °F - 44.6 °F 87% 29.71 in 6.2 mi NW 9.2 mph - N/A   Overcast
6:13 PM 48.2 °F - 44.6 °F 87% 29.71 in 6.2 mi NW 8.1 mph - N/A   Overcast
6:14 PM 48.2 °F - 44.6 °F 87% 29.72 in 6.2 mi NW 8.1 mph - N/A Rain Light Rain
6:20 PM 48.2 °F - 44.6 °F 87% 29.71 in 6.2 mi NW 5.8 mph - N/A Rain Light Rain
6:34 PM 48.2 °F - 44.6 °F 87% 29.71 in 6.2 mi West 4.6 mph - N/A   Overcast
6:58 PM 45.9 °F 43.6 °F 43.2 °F 90% 29.71 in 6.2 mi West 4.6 mph - 0.01 in   Mostly Cloudy
7:58 PM 44.1 °F 42.5 °F 42.4 °F 94% 29.72 in 6.2 mi WNW 3.5 mph - N/A   Mostly Cloudy
8:58 PM 43.3 °F - 42.3 °F 96% 29.72 in 6.2 mi North 1.2 mph - N/A   Overcast
9:17 PM 42.8 °F - 41.0 °F 93% 29.71 in 2.5 mi Calm Calm - N/A   Mostly Cloudy
9:18 PM 42.8 °F - 41.0 °F 93% 29.71 in - Calm Calm - N/A   Mostly Cloudy
9:19 PM 42.8 °F - 41.0 °F 93% 29.71 in 1.7 mi Calm Calm - N/A   Mostly Cloudy
9:20 PM 42.8 °F - 41.0 °F 93% 29.71 in 1.5 mi Calm Calm - N/A   Mostly Cloudy
9:23 PM 41.0 °F - 41.0 °F 100% 29.71 in 1.2 mi Calm Calm - N/A   Mostly Cloudy
9:28 PM 41.0 °F - 41.0 °F 100% 29.71 in 1.0 mi Calm Calm - N/A   Scattered Clouds
9:32 PM 41.0 °F - 41.0 °F 100% 29.72 in 0.7 mi Calm Calm - N/A   Partly Cloudy
9:33 PM 41.0 °F - 41.0 °F 100% 29.72 in 0.7 mi North 1.2 mph - N/A   Partly Cloudy
9:42 PM 41.0 °F - 39.2 °F 93% 29.72 in 1.0 mi Calm Calm - N/A   Scattered Clouds
9:43 PM 41.0 °F - 39.2 °F 93% 29.72 in 1.0 mi NNW 1.2 mph - N/A   Scattered Clouds
9:44 PM 41.0 °F - 39.2 °F 93% 29.72 in 1.2 mi NW 1.2 mph - N/A   Scattered Clouds
9:45 PM 41.0 °F - 39.2 °F 93% 29.72 in 1.5 mi NW 1.2 mph - N/A   Scattered Clouds
9:46 PM 41.0 °F - 39.2 °F 93% 29.72 in 1.7 mi NW 1.2 mph - N/A   Scattered Clouds
9:47 PM 41.0 °F - 39.2 °F 93% 29.71 in - NW 1.2 mph - N/A   Scattered Clouds
9:48 PM 41.0 °F - 39.2 °F 93% 29.71 in 2.5 mi Calm Calm - N/A   Mostly Cloudy
9:49 PM 41.0 °F - 39.2 °F 93% 29.71 in 3.1 mi Calm Calm - N/A   Mostly Cloudy
9:57 PM 41.0 °F - 39.2 °F 93% 29.71 in 2.5 mi Calm Calm - N/A   Mostly Cloudy
9:58 PM 41.0 °F - 39.2 °F 93% 29.72 in 2.5 mi Calm Calm - N/A   Mostly Cloudy
9:59 PM 41.0 °F - 39.2 °F 93% 29.71 in - Calm Calm - N/A   Mostly Cloudy
10:00 PM 41.0 °F - 41.0 °F 100% 29.71 in - Calm Calm - N/A   Mostly Cloudy
10:01 PM 41.0 °F - 41.0 °F 100% 29.71 in 1.7 mi Calm Calm - N/A   Mostly Cloudy
10:02 PM 41.0 °F - 41.0 °F 100% 29.71 in 1.7 mi Calm Calm - N/A   Overcast
10:03 PM 41.0 °F - 41.0 °F 100% 29.71 in - Calm Calm - N/A   Overcast
10:05 PM 41.0 °F - 41.0 °F 100% 29.71 in - Calm Calm - N/A   Overcast
10:07 PM 41.0 °F - 41.0 °F 100% 29.71 in 1.7 mi Calm Calm - N/A   Overcast
10:11 PM 42.8 °F - 41.0 °F 93% 29.71 in 1.7 mi Calm Calm - N/A   Overcast
10:13 PM 42.8 °F - 41.0 °F 93% 29.71 in 1.7 mi Calm Calm - N/A   Overcast
10:15 PM 42.8 °F - 41.0 °F 93% 29.71 in 1.5 mi Calm Calm - N/A   Overcast
10:19 PM 42.8 °F - 41.0 °F 93% 29.71 in 1.7 mi Calm Calm - N/A   Overcast
10:20 PM 42.8 °F - 41.0 °F 93% 29.71 in 1.7 mi Calm Calm - N/A   Overcast
10:22 PM 42.8 °F - 41.0 °F 93% 29.71 in - Calm Calm - N/A   Overcast
10:24 PM 42.8 °F - 41.0 °F 93% 29.71 in 2.5 mi Calm Calm - N/A   Overcast
10:25 PM 42.8 °F - 41.0 °F 93% 29.71 in 3.1 mi Calm Calm - N/A   Overcast
10:48 PM 42.8 °F - 42.8 °F 100% 29.71 in 5.0 mi Calm Calm - N/A   Overcast
10:53 PM 42.8 °F - 42.8 °F 100% 29.71 in 5.0 mi Calm Calm - N/A   Overcast
10:58 PM 42.8 °F - 42.3 °F 98% 29.72 in 3.7 mi Calm Calm - N/A   Overcast
11:02 PM 42.8 °F - 42.8 °F 100% 29.71 in 5.0 mi Calm Calm - N/A   Overcast
11:30 PM 42.8 °F - 42.8 °F 100% 29.70 in 5.0 mi Calm Calm - N/A   Light Drizzle
11:35 PM 42.8 °F - 42.8 °F 100% 29.71 in 5.0 mi Calm Calm - N/A   Light Drizzle
11:43 PM 42.8 °F - 42.8 °F 100% 29.71 in 5.0 mi SW 2.3 mph - N/A   Mostly Cloudy
11:58 PM 43.2 °F 41.5 °F 42.6 °F 98% 29.72 in 5.0 mi SW 3.5 mph - 0.00 in   Overcast